FENGYUN 1C DEB, 31459

Orbit data source: Space-Track

FENGYUN 1C DEB, 31459 is space debris in SSO originally from a launch on Mon, 10 May 1999 UTC launched from the Taiyaun Space Center, China (TSC). Fengyun 1C debris stems from the Chinese weather satellite Fengyun-1C, which was intentionally destroyed by a Chinese anti-satellite missile in 2007. This event dramatically increased the amount of space debris, with thousands of trackable fragments posing hazards to satellites and human spaceflight. The Fengyun 1C debris cloud has become a focal point in discussions about space sustainability and the need for international regulations to prevent the creation of new debris.

Loading next visibility...
Identifier
31459, 1999-025BUX
Orbit
SSO
Country
Flag of CNCN / PRC
Related business
Manufacturer
Unknown
Mission
Spacecraft
Bus & Motor
Unknown
Mass
Unknown
Launch date (UTC)
1999-05-10 (27 years ago)
Launch vehicle
Unknown
Launch site
Taiyaun Space Center, China (TSC)
Object type
Payload
Rocket body
Debris
Shape & HBR
Unknown shape, 0.1 m
Radar Cross Section
Small (<0.1 m²)

Expand to show TLE details & history
Last TLE update: 1 week ago

TLE from 1 week ago
0 FENGYUN 1C DEB
1 31459U 99025BUX 26245.99203289  .00002605  00000-0  69683-3 0  9996
2 31459  98.1591 149.4458 0093279  46.9627 313.9330 14.46536869683759
Epoch: 2026-09-02T23:48Z
TLE epoch observation values (Epoch: 2026-09-02T23:48:31.641Z)
Latitude
-0.0001°
Longitude
170.17736°
Altitude
694.217 km
Speed
7.533 km/s
True Right ascension
09h 57m 46s
True Declination
0° 00' 00"
Sunlit
Object was in daylight at epoch
Visualization orbit readout
Latitude
Unknown
Longitude
Unknown
Altitude
Unknown
Speed
Unknown
Apparent Right ascension
Unknown
Apparent Declination
Unknown
Sunlit
N/A
Visualization observer readout
Local Sidereal Time
04:44:16
Azimuth
Unknown
Elevation
Unknown
Doppler factor
Unknown
Orbital elements
Apogee altitude
800.421 km
Perigee altitude
667.737 km
Semi-major axis
7,112.216 km
Eccentricity
0.00933
Inclination
98.1591°
RAAN
149.4458°
Arg. of periapsis
46.9627°
True anomaly
313.15698°
Mean anomaly
313.933°
Eccentric anomaly
313.54562°
Mean motion
3.61856 °/min
Orbital period
99.49 mins
BSTAR
0.00069683
Loading maneuver chart data...
Computing Atmospheric mass density...

Documentation

Showing up to 5 results
|